This is the latest recevied weather packets stored in our database for station/object HASTNG-WX. If no packets are shown the sender has not sent any weather packets the latest 10 day(s).
| Time | Temp. | Humidity | Pressure | Rain* | Wind** | Luminosity | Snow |
|---|---|---|---|---|---|---|---|
| 1777674648 | 6.67° C | 60% | 987.4 hPa | 0 mm | - | - | - |
| 1777673729 | 6.11° C | 60% | 987.4 hPa | 0 mm | - | - | - |
| 1777672857 | 6.11° C | 60% | 987.4 hPa | 0 mm | - | - | - |
| 1777671929 | 6.11° C | 59% | 986.8 hPa | 0 mm | - | - | - |
| 1777671043 | 6.11° C | 55% | 987.2 hPa | 0 mm | - | - | - |
| 1777670129 | 7.22° C | 55% | 987.2 hPa | 0 mm | - | - | - |
| 1777669256 | 7.22° C | 55% | 987.2 hPa | 0 mm | - | - | - |
| 1777668329 | 6.67° C | 54% | 986.4 hPa | 0 mm | - | - | - |
| 1777667447 | 6.67° C | 52% | 986.6 hPa | 0 mm | - | - | - |
| 1777666529 | 6.67° C | 52% | 986.6 hPa | 0 mm | - | - | - |
| 1777665655 | 7.22° C | 52% | 986.6 hPa | 0 mm | - | - | - |
| 1777664728 | 7.78° C | 59% | 986.3 hPa | 0 mm | - | - | - |
| 1777663846 | 7.78° C | 59% | 986.3 hPa | 0 mm | - | - | - |
| 1777662930 | 7.22° C | 59% | 986.3 hPa | 0 mm | - | - | - |
| 1777662051 | 7.22° C | 59% | 986.3 hPa | 0 mm | - | - | - |
| 1777661130 | 7.22° C | 57% | 985.9 hPa | 0 mm | - | - | - |
| 1777660245 | 7.22° C | 60% | 986.2 hPa | 0 mm | - | - | - |
| 1777659329 | 6.67° C | 60% | 986.1 hPa | 0 mm | - | - | - |
| 1777658457 | 6.67° C | 60% | 986.1 hPa | 0 mm | - | - | - |
| 1777657529 | 6.67° C | 60% | 987.1 hPa | 0 mm | - | - | - |
| 1777656645 | 6.67° C | 55% | 986.4 hPa | 0 mm | - | - | - |
| 1777655729 | 7.22° C | 55% | 986.5 hPa | 0 mm | - | - | - |
| 1777654855 | 7.22° C | 55% | 986.5 hPa | 0 mm | - | - | - |
| 1777653929 | 7.78° C | 59% | 985.2 hPa | 0 mm | - | - | - |
| 1777653048 | 7.22° C | 58% | 985.5 hPa | 0 mm | - | - | - |
* Rain latest hour (hover to see other rain measurements)
** Current wind speed in m/s (hover to see current wind gust speed)